TimeCST,TemperatureF,Dew PointF,Humidity,Sea Level PressureIn,VisibilityMPH,Wind Direction,Wind SpeedMPH,Gust SpeedMPH,PrecipitationIn,Events,Conditions,WindDirDegrees,DateUTC
12:53 AM,37.0,35.1,93,30.05,4.0,Calm,Calm,-,N/A,,Clear,0,2013-02-14 06:53:00
1:53 AM,37.0,35.1,93,30.04,4.0,Calm,Calm,-,N/A,,Clear,0,2013-02-14 07:53:00
2:11 AM,35.6,33.8,93,30.04,1.8,Calm,Calm,-,N/A,,Clear,0,2013-02-14 08:11:00
2:22 AM,35.6,33.8,93,30.04,3.0,Calm,Calm,-,N/A,,Clear,0,2013-02-14 08:22:00
2:53 AM,35.1,33.1,92,30.03,4.0,North,3.5,-,N/A,,Clear,350,2013-02-14 08:53:00
3:53 AM,36.0,34.0,93,30.05,4.0,Calm,Calm,-,N/A,,Clear,0,2013-02-14 09:53:00
4:53 AM,35.1,33.1,92,30.07,4.0,North,4.6,-,N/A,,Clear,350,2013-02-14 10:53:00
5:53 AM,36.0,35.1,97,30.06,4.0,North,5.8,-,N/A,,Clear,350,2013-02-14 11:53:00
6:53 AM,37.0,35.1,93,30.08,3.0,Calm,Calm,-,N/A,,Clear,0,2013-02-14 12:53:00
7:53 AM,37.9,36.0,93,30.13,3.0,Calm,Calm,-,N/A,,Clear,0,2013-02-14 13:53:00
8:53 AM,41.0,37.0,86,30.15,4.0,NNW,3.5,-,N/A,,Clear,340,2013-02-14 14:53:00
9:53 AM,43.0,37.0,80,30.14,6.0,North,4.6,-,N/A,,Haze,10,2013-02-14 15:53:00
10:53 AM,45.0,37.0,74,30.15,7.0,Calm,Calm,-,N/A,,Clear,0,2013-02-14 16:53:00
11:53 AM,48.9,39.0,69,30.12,8.0,North,4.6,-,N/A,,Clear,360,2013-02-14 17:53:00
12:53 PM,50.0,37.0,61,30.10,10.0,West,3.5,-,N/A,,Clear,280,2013-02-14 18:53:00
1:53 PM,53.1,36.0,52,30.06,10.0,NNW,8.1,-,N/A,,Clear,330,2013-02-14 19:53:00
2:53 PM,55.0,35.1,47,30.05,10.0,Variable,4.6,-,N/A,,Clear,0,2013-02-14 20:53:00
3:53 PM,57.0,33.1,40,30.05,10.0,North,9.2,-,N/A,,Clear,350,2013-02-14 21:53:00
4:53 PM,54.0,35.1,49,30.06,10.0,NNW,9.2,-,N/A,,Clear,330,2013-02-14 22:53:00
5:53 PM,48.9,36.0,61,30.07,10.0,Calm,Calm,-,N/A,,Clear,0,2013-02-14 23:53:00
6:53 PM,43.0,37.9,82,30.09,10.0,Calm,Calm,-,N/A,,Clear,0,2013-02-15 00:53:00
7:53 PM,39.9,37.0,89,30.10,8.0,Calm,Calm,-,N/A,,Clear,0,2013-02-15 01:53:00
8:53 PM,39.0,36.0,89,30.11,7.0,Calm,Calm,-,N/A,,Clear,0,2013-02-15 02:53:00
9:53 PM,37.9,35.1,89,30.11,7.0,Calm,Calm,-,N/A,,Clear,0,2013-02-15 03:53:00
10:53 PM,36.0,34.0,93,30.11,6.0,Calm,Calm,-,N/A,,Clear,0,2013-02-15 04:53:00
11:31 PM,35.6,33.8,93,30.10,4.0,Calm,Calm,-,N/A,,Scattered Clouds,0,2013-02-15 05:31:00
11:42 PM,35.6,33.8,93,30.10,3.0,Calm,Calm,-,N/A,,Mostly Cloudy,0,2013-02-15 05:42:00
11:49 PM,35.6,33.8,93,30.10,1.2,Calm,Calm,-,N/A,,Mostly Cloudy,0,2013-02-15 05:49:00
11:51 PM,35.6,33.8,93,30.10,0.8,Calm,Calm,-,N/A,,Mist,0,2013-02-15 05:51:00
11:53 PM,35.1,34.0,96,30.10,0.5,Calm,Calm,-,N/A,Fog,Fog,0,2013-02-15 05:53:00